Regional Weather Roundup
Issued by NWS

Home | Current Version | Previous Version | Text Only | Print | Product List | Glossary On
Versions: 1 2 3 4 5 6 7 8 9 10 11 12 13 14 15 16 17 18 19 20 21 22 23 24 25 26 27
000
ASUS45 KPSR 202310
RWRAZ

ARIZONA HOURLY REGIONAL WEATHER ROUNDUP
NATIONAL WEATHER SERVICE PHOENIX AZ
400 PM MST MON NOV 20 2017

NOTE: FAIR INDICATES FEW OR NO CLOUDS BELOW 12,000 FEET WITH NO
SIGNIFICANT WEATHER AND/OR OBSTRUCTIONS TO VISIBILITY.

AZZ001>003-036-210000-
NORTHWEST ARIZONA

CITY           SKY/WX    TMP DP  RH WIND       PRES   REMARKS
BULLHEAD CITY  MOSUNNY   72   5   7 N15       30.02R
KINGMAN        MOSUNNY   67  21  17 SW13      30.07R
$$

AZZ004>008-015-016-018-210000-
NORTH CENTRAL ARIZONA

CITY           SKY/WX    TMP DP  RH WIND       PRES   REMARKS
GRAND CANYON   PTSUNNY   57  -3   8 W6        30.17S
WILLIAMS       PTSUNNY   55   5  13 W8        30.17S
PRESCOTT       CLOUDY    65   9  11 W6        30.10F
FLAGSTAFF      PTSUNNY   53   8  16 SW12      30.17F
PAYSON         PTSUNNY   61  14  16 S6        30.13F
PAGE           MOSUNNY   52  14  22 NE3       30.09F
$$

AZZ009>014-017-210000-
NORTHEAST ARIZONA

CITY           SKY/WX    TMP DP  RH WIND       PRES   REMARKS
WINSLOW        PTSUNNY   61   9  12 NW3       30.10S
SAINT JOHNS    MOSUNNY   62  -1   8 NW9       30.10F
WINDOW ROCK    MOSUNNY   58  -2   8 W7        30.14S
SHOW LOW       MOSUNNY   61  10  13 S10       30.16F
$$

AZZ540-542>544-546-548-210000-
GREATER PHOENIX AREA

CITY           SKY/WX    TMP DP  RH WIND       PRES   REMARKS
PHOENIX        CLOUDY    77  24  14 CALM      29.96F
BUCKEYE        PTSUNNY   75  41  29 SE5       29.96F
GLENDALE       PTSUNNY   77  23  13 CALM      29.98F
LUKE AFB       SUNNY     75  26  16 CALM      29.95F
DEER VALLEY    MOSUNNY   75  22  13 SW5       29.97F
SCOTTSDALE     MOSUNNY   76  28  17 SW5       29.99F
MESA-FALCON    PTSUNNY   77  27  15 SW6       29.98F
MESA-GATEWAY   PTSUNNY   75  25  15 W5        29.99F
CHANDLER       PTSUNNY   75  23  14 CALM      29.97F
$$

AZZ539-553-210000-
SOUTHWEST MARICOPA COUNTY AND PINAL COUNTY

CITY           SKY/WX    TMP DP  RH WIND       PRES   REMARKS
CASA GRANDE    NOT AVBL
GILA BEND      PTSUNNY   77  21  12 NW3       29.95F
$$

AZZ503-504-507>509-210000-
SOUTHEAST ARIZONA

CITY           SKY/WX    TMP DP  RH WIND       PRES   REMARKS
TUCSON         PTSUNNY   79  24  13 N10       30.03S
DAVIS-MONTHAN  MOSUNNY   78  25  14 N8        30.01S
RYAN FIELD     SUNNY     77  25  14 N7        30.02S
NOGALES        PTSUNNY   74  22  14 W9        30.06S
SIERRA VISTA   PTSUNNY   73  15  11 W13       30.11S
DOUGLAS        MOSUNNY   72  23  16 CALM      30.07F
SAFFORD        MOSUNNY   69  20  15 W8        30.03F
$$

AZZ532-210000-
SOUTHWEST ARIZONA

CITY           SKY/WX    TMP DP  RH WIND       PRES   REMARKS
YUMA           MOSUNNY   78  17  10 N6        29.95R
$$

CAZ041-043-047-048-061-525>527-560>570-210000-
SOUTHERN CALIFORNIA

CITY           SKY/WX    TMP DP  RH WIND       PRES   REMARKS
DOWNTOWN L.A.  MOSUNNY   73  40  30 CALM      29.98S
L.A. AIRPORT   PTSUNNY   67  57  70 W7        29.99F
SAN DIEGO      PTSUNNY   71  44  37 NW8       30.00F
BURBANK        MOSUNNY   74  43  32 S7        29.98S
ONTARIO        CLOUDY    76  30  18 W6        30.00R
RIVERSIDE      PTSUNNY   75  29  18 NW5       30.00R
PALM SPRINGS   MOSUNNY   78  16   9 VRB6      29.99R
EL CENTRO NAS  PTSUNNY   76  26  15 NE5       29.97S
IMPERIAL       MOSUNNY   77  26  15 CALM      29.94F
BLYTHE         PTSUNNY   73   8   8 SW7       29.98R
NEEDLES        MOSUNNY   72   9   8 N5        30.03R
$$

NVZ020-UTZ003-210000-
SOUTHERN NEVADA-UTAH

CITY           SKY/WX    TMP DP  RH WIND       PRES   REMARKS
LAS VEGAS      PTSUNNY   64   9  11 CALM      30.07S
SALT LAKE CITY CLOUDY    46  33  60 E8        30.07F
$$

NMZ009-TXZ055-210000-
NEW MEXICO-WEST TEXAS

CITY           SKY/WX    TMP DP  RH WIND       PRES   REMARKS
ALBUQUERQUE    CLOUDY    57  -2   9 CALM      30.08S
EL PASO        PTSUNNY   66  22  18 W9        30.03S
$$


........................KEY........................
SKY/WX - SKY CONDITION/WEATHER
TMP    - TEMPERATURE IN FAHRENHEIT
DP     - DEW POINT IN FAHRENHEIT
RH     - RELATIVE HUMIDITY IN PERCENT
WIND   - DIRECTION AND SPEED IN MILES PER HOUR (MPH)
VRB    - VARIABLE WIND DIRECTION
PRES   - MEAN SEA LEVEL PRESSURE IN INCHES OF MERCURY
         F - FALLING PRESSURE   R - RISING PRESSURE
         S - STEADY PRESSURE
VSB    - VISIBILITY IN MILES
HX     - HEAT INDEX IN FAHRENHEIT
WCI    - WIND CHILL INDEX IN FAHRENHEIT
TC     - TEMPERATURE IN CELSIUS WHICH IS ALSO KNOWN AS
         TEMPERATURE IN CENTIGRADE
AFB    - AIR FORCE BASE
         LUKE AFB IS LUKE AIR FORCE BASE
         DAVIS-MONTHAN IS DAVIS-MONTHAN AIR FORCE BASE
NAS    - NAVAL AIR STATION
         EL CENTRO NAS IS EL CENTRO NAVAL AIR STATION
N/A    - NOT AVAILABLE





USA.gov is the U.S. government's official web portal to all federal, state and local government web resources and services.